{"data":{"norad_id":39086,"intl_designator":"2013-009A","name":"SARAL","alt_names":[],"object_type":"PAYLOAD","status":"ACTIVE","operator":null,"country":"IND","launch_date":"2013-02-25","launch_site_code":"SRILR","launch_vehicle":null,"mission":null,"orbit_class":"UNKNOWN","rcs_meters":1.6825,"size_class":null,"mass_kg":null,"dimensions":null,"purposes":["earth_obs"],"wikipedia_slug":null,"has_3d_model":false,"image_url":null,"decayed_at":null,"tle_current":{"epoch":"2026-09-20T03:32:49.678944Z","epoch_age_seconds":44788,"freshness":"FRESH","line1":"1 39086U 13009A   26263.14779721  .00000038  00000+0  29819-4 0  9999","line2":"2 39086  98.5564  88.5295 0002357  37.5718 322.5631 14.32907970709202","mean_motion":14.3290797,"eccentricity":0.0002357,"inclination_deg":98.5564,"raan_deg":88.5295,"arg_perigee_deg":37.5718,"mean_anomaly_deg":322.5631,"bstar":2.9819e-5,"rev_number":70920,"period_min":100.49493967153,"perigee_km":780.3394495945,"apogee_km":783.71475095137,"semimajor_km":7160.1641002729,"source":"CELESTRAK","updated_at":"2026-09-20T09:00:33.894453Z"}}}